Wind_Speed
19 21 21 20 20 19 18 17 17 17 17 16 16 15 16 15 14 15 16 16 17 16 16 17 17 18 18 18 17 17 15 15 15 15 15 14 14 14 14 15 15 16 17 17
19 20 21 21 21 20 19 18 17 17 17 16 16 15 15 15 15 16 16 17 17 18 17 17 18 18 18 18 17 17 16 16 16 15 14 14 14 14 14 14 15 16 17 17
19 20 21 22 21 20 20 18 17 17 17 17 16 15 15 15 16 17 17 18 18 19 18 17 17 18 18 17 16 16 15 15 16 15 14 14 15 15 15 15 15 16 17 17
20 21 21 21 21 20 19 19 18 18 17 16 16 15 15 15 15 16 17 17 18 18 18 17 17 17 17 17 16 16 15 15 16 15 15 15 15 16 15 15 16 16 17 18
19 20 21 21 21 21 21 19 18 18 17 16 15 15 14 15 16 16 16 17 17 17 17 16 16 16 16 16 16 16 15 15 15 16 15 16 16 15 15 16 16 17 18 18
18 19 20 21 21 22 21 19 18 17 17 16 15 15 15 15 15 16 16 16 16 16 16 15 15 16 16 16 16 16 15 15 15 16 17 16 16 15 15 16 16 17 17 17
18 19 20 20 21 21 21 18 16 16 16 16 16 16 15 14 14 15 15 15 14 14 14 14 14 15 16 16 16 16 16 16 16 16 16 16 15 15 15 16 16 17 17 18
16 18 19 20 20 20 20 18 17 16 15 16 17 16 16 14 14 13 13 14 14 14 14 14 15 15 16 16 15 16 16 16 16 16 16 16 15 16 16 17 17 17 18 18
16 18 19 19 19 19 19 19 18 17 17 16 16 15 16 14 14 14 14 13 14 14 14 14 14 15 15 15 16 17 16 16 16 15 16 16 16 17 17 17 17 17 18 18
18 18 19 19 19 19 20 20 18 18 17 16 16 15 15 14 15 14 14 14 13 13 14 14 14 13 14 15 16 17 17 16 16 16 16 16 16 17 17 17 17 18 18 18
17 18 19 20 20 20 21 21 20 19 19 17 16 17 17 16 16 15 15 14 14 14 14 13 13 13 14 15 15 16 16 16 16 16 16 16 16 16 16 16 16 16 17 17
18 18 19 21 20 21 21 20 20 20 20 19 18 19 19 17 17 17 16 15 15 15 15 14 14 14 14 15 16 16 17 17 17 17 16 15 15 15 14 14 15 15 16 16
18 19 18 19 20 21 21 21 21 21 21 21 20 19 19 18 17 17 17 17 16 15 15 15 15 15 15 16 17 17 17 17 16 16 15 14 14 14 15 15 15 15 16 17
19 20 20 19 20 21 22 21 21 21 21 21 21 20 20 20 18 18 18 17 16 15 15 15 15 15 16 16 17 17 17 17 16 15 14 14 14 15 14 15 15 15 16 17
21 21 21 22 22 22 22 22 22 22 22 22 22 22 21 21 20 19 19 18 17 16 16 16 16 16 17 17 17 17 16 15 15 15 15 15 16 14 14 15 16 16 16 17
23 22 23 23 23 23 23 23 22 22 23 23 23 23 22 22 21 21 21 20 19 18 17 17 17 17 17 17 17 16 15 14 15 15 15 16 16 15 16 15 16 16 16 17
24 24 24 24 24 24 25 24 23 23 22 22 22 22 22 22 22 21 21 20 20 19 19 19 18 18 18 17 17 16 15 15 15 15 15 15 16 16 16 16 16 16 17 16
25 24 25 25 24 26 25 23 23 23 23 23 23 22 22 22 22 22 22 22 21 21 21 20 20 19 18 17 17 16 15 15 15 16 16 17 17 17 17 18 17 17 17 16
25 25 24 25 25 25 25 23 23 24 24 23 23 23 22 22 23 23 23 23 23 22 22 22 21 20 19 18 17 17 17 17 17 17 17 17 17 17 18 18 18 18 17 17
25 25 24 24 24 25 25 24 22 23 24 23 23 23 24 23 24 25 25 24 24 23 23 22 22 21 21 20 20 20 19 19 18 18 17 17 18 18 18 19 19 18 17 17
25 25 25 24 25 27 26 24 23 23 24 23 23 23 23 24 24 24 24 24 24 24 23 23 23 22 21 21 20 20 19 19 20 19 19 18 18 19 19 19 18 18 18 17
24 25 26 25 25 27 25 25 25 24 24 23 23 23 23 24 24 24 24 24 24 24 23 23 23 23 23 22 21 20 20 20 20 20 20 20 19 19 20 19 19 18 18 17
25 25 25 26 26 25 24 24 24 24 24 24 22 22 23 24 24 24 24 24 24 24 24 24 24 24 24 23 22 22 22 22 22 21 21 21 21 20 20 19 19 19 18 17
24 24 24 25 25 25 24 24 24 24 23 22 22 22 23 24 23 23 23 24 24 25 24 25 25 25 25 24 24 25 24 23 23 23 23 23 23 22 21 21 20 20 19 17
24 24 24 24 24 25 24 24 24 24 24 24 23 23 22 23 23 24 24 24 24 24 24 25 25 24 24 25 25 25 24 23 23 23 23 24 24 23 22 21 20 20 18 17
25 25 24 25 24 24 24 25 25 24 24 24 24 23 23 23 24 24 25 25 25 24 25 25 25 24 24 24 24 24 24 23 23 23 23 23 23 22 21 21 20 20 19 18
Wind_Direction
237 235 234 235 236 237 241 243 246 249 255 259 264 264 266 269 270 271 271 272 277 278 280 286 291 295 297 298 298 298 296 297 297 297 296 295 296 297 296 292 295 295 294 295
239 237 236 236 235 235 237 240 245 249 255 260 262 262 264 269 270 271 271 273 278 280 281 286 289 292 294 294 295 295 295 294 293 294 294 294 295 297 295 296 296 296 295 297
237 236 234 234 235 234 236 239 243 248 256 263 263 264 268 271 269 270 271 274 277 281 283 284 287 290 290 292 294 294 293 294 293 293 291 294 296 299 297 297 298 298 299 298
236 234 233 234 235 233 235 239 243 247 254 262 262 264 266 269 269 271 273 274 276 278 283 284 286 287 290 293 292 292 292 293 293 292 291 294 295 297 297 298 298 298 299 299
236 233 232 233 235 233 234 240 244 248 255 260 264 265 264 267 269 272 275 274 276 278 281 282 284 286 289 291 291 291 292 292 292 292 292 294 294 297 299 300 301 301 301 301
232 231 231 232 234 234 235 240 246 251 256 261 260 263 265 267 272 273 273 274 278 281 279 277 282 285 288 290 291 291 291 290 290 292 292 295 295 297 300 301 302 304 305 304
233 232 230 230 231 233 234 238 246 252 256 260 260 261 265 268 271 275 277 278 281 283 278 278 284 285 287 289 290 290 290 290 291 292 295 297 296 297 300 301 301 303 305 306
235 234 230 229 231 232 233 235 240 247 252 257 261 260 263 268 272 277 280 280 282 279 276 280 285 286 287 288 289 291 290 289 291 293 294 297 297 297 297 297 297 302 305 306
235 235 233 231 232 232 232 234 239 246 252 257 262 261 264 267 272 275 278 280 282 281 282 284 284 285 287 288 291 293 292 292 292 293 297 297 297 297 297 295 296 301 306 305
237 236 236 233 232 231 234 237 238 243 249 256 262 262 263 264 269 274 278 283 282 281 283 285 283 284 287 291 293 295 294 295 294 293 295 299 301 299 298 296 297 301 304 304
238 238 240 239 236 236 238 241 240 244 250 256 260 260 263 267 269 270 274 274 275 276 281 284 282 288 291 293 295 298 298 299 298 297 296 299 304 304 300 298 299 302 304 305
237 238 239 242 241 240 241 242 243 246 251 255 259 262 264 269 269 270 273 273 274 274 279 281 283 286 290 292 294 298 300 301 299 297 297 299 303 306 305 302 302 304 306 307
240 239 239 242 246 245 245 245 246 246 251 255 258 261 265 269 267 269 271 270 273 273 274 277 280 283 286 289 292 296 299 298 298 299 300 301 302 307 309 307 306 305 307 308
242 241 240 242 247 250 249 250 251 252 254 258 258 257 262 264 263 266 267 269 270 269 271 273 277 280 284 287 289 292 296 295 295 297 300 304 307 308 312 313 308 305 309 310
242 243 243 243 245 248 250 250 250 253 256 259 260 259 258 260 260 262 264 267 267 268 272 272 273 278 282 284 285 287 289 292 295 295 296 299 304 308 311 312 311 309 309 310
244 245 247 248 248 249 250 249 251 255 256 257 259 259 258 259 259 261 263 263 265 268 272 273 273 276 280 282 283 284 285 289 290 292 294 294 298 302 306 308 308 308 309 311
246 248 248 249 250 251 249 249 252 255 256 259 261 260 259 259 260 260 261 262 265 268 270 271 272 274 275 277 279 281 284 286 288 289 291 295 296 298 302 304 305 306 308 312
246 247 249 249 249 249 251 250 253 255 257 259 260 260 258 257 257 258 260 261 264 268 269 270 269 271 270 271 273 276 281 285 289 291 291 294 295 297 299 301 302 303 303 307
246 247 249 250 251 253 253 252 254 255 256 257 259 258 258 259 259 259 260 262 266 267 268 268 266 267 269 268 270 274 277 279 283 287 289 292 293 294 297 298 297 298 298 300
245 246 249 251 251 253 253 255 255 257 257 256 258 257 257 258 260 261 262 263 264 266 266 266 267 267 266 266 268 273 276 280 282 285 288 290 292 293 294 297 297 296 296 296
246 247 248 250 252 254 253 255 255 257 258 259 259 257 256 258 259 261 262 261 261 262 264 266 267 268 266 267 268 272 275 278 279 282 285 287 289 291 293 295 298 298 294 292
247 248 248 249 250 252 255 255 254 256 258 258 258 255 257 258 259 260 261 260 261 263 266 268 268 268 268 268 269 270 273 275 277 279 283 286 288 288 290 293 296 296 296 293
246 248 248 248 251 254 255 257 256 256 257 257 256 257 260 260 261 261 262 264 264 266 268 268 268 268 267 268 270 269 271 273 275 276 279 283 284 285 288 290 292 293 295 295
247 249 250 250 251 252 254 255 255 255 257 258 257 257 259 261 260 260 262 264 265 267 268 269 269 267 266 267 267 267 269 272 274 275 277 280 281 282 285 288 288 289 293 293
249 250 251 250 251 252 252 253 254 254 255 258 260 258 259 261 261 261 263 265 266 266 266 267 267 266 267 267 266 266 267 270 272 274 276 277 278 279 282 284 286 288 289 286
249 251 252 252 252 252 251 251 252 254 257 259 260 259 256 257 260 262 263 265 264 265 266 267 267 267 268 268 267 266 267 270 272 274 276 277 278 279 279 281 284 287 285 284
Height
5838 5841 5843 5846 5849 5852 5854 5856 5857 5858 5858 5859 5859 5859 5859 5858 5858 5857 5857 5857 5856 5855 5855 5854 5852 5851 5849 5848 5846 5845 5843 5841 5839 5837 5835 5834 5833 5831 5829 5827 5826 5824 5822 5820
5835 5837 5840 5842 5844 5847 5849 5852 5853 5854 5854 5855 5855 5856 5856 5855 5855 5854 5854 5853 5853 5852 5851 5850 5849 5847 5846 5844 5843 5841 5839 5838 5836 5834 5832 5830 5829 5827 5825 5823 5822 5820 5818 5816
5831 5834 5835 5837 5840 5843 5845 5848 5850 5851 5851 5851 5852 5853 5852 5851 5851 5851 5850 5849 5849 5848 5847 5846 5845 5844 5842 5841 5839 5837 5835 5834 5832 5830 5828 5826 5825 5823 5821 5819 5818 5816 5814 5812
5826 5829 5831 5833 5836 5839 5842 5843 5845 5847 5848 5849 5849 5850 5849 5848 5847 5847 5846 5845 5845 5844 5843 5842 5841 5840 5839 5838 5836 5834 5832 5830 5828 5827 5825 5823 5822 5820 5818 5815 5814 5812 5810 5808
5822 5824 5826 5829 5832 5834 5837 5839 5841 5843 5844 5845 5845 5846 5847 5844 5844 5843 5842 5841 5840 5840 5839 5839 5837 5836 5835 5834 5832 5830 5828 5827 5825 5823 5821 5820 5818 5816 5814 5812 5810 5808 5805 5803
5818 5820 5822 5825 5828 5830 5833 5835 5838 5839 5841 5842 5842 5842 5842 5841 5840 5839 5838 5837 5836 5836 5835 5835 5834 5833 5832 5830 5829 5827 5825 5823 5821 5820 5818 5816 5814 5812 5810 5808 5806 5803 5801 5798
5814 5816 5818 5821 5823 5825 5829 5832 5835 5836 5837 5838 5838 5838 5838 5837 5836 5835 5835 5834 5833 5832 5832 5831 5830 5829 5828 5827 5825 5824 5822 5820 5818 5816 5815 5813 5811 5809 5807 5804 5802 5799 5797 5794
5812 5814 5814 5816 5819 5822 5824 5828 5831 5833 5835 5835 5834 5834 5835 5834 5833 5832 5831 5831 5830 5829 5828 5827 5826 5825 5824 5823 5822 5820 5818 5816 5814 5812 5811 5809 5807 5805 5803 5800 5798 5795 5793 5790
5809 5811 5812 5813 5816 5818 5820 5823 5826 5828 5829 5830 5831 5831 5830 5830 5829 5829 5828 5827 5827 5826 5824 5823 5823 5822 5821 5820 5818 5816 5814 5812 5810 5808 5807 5805 5803 5800 5798 5796 5793 5791 5788 5785
5805 5807 5809 5810 5812 5814 5817 5818 5821 5823 5824 5826 5827 5827 5827 5826 5825 5825 5825 5824 5823 5823 5822 5820 5819 5819 5818 5816 5814 5813 5811 5809 5807 5805 5802 5800 5798 5796 5794 5791 5789 5786 5784 5781
5801 5804 5805 5807 5808 5810 5812 5814 5816 5818 5819 5822 5823 5825 5822 5822 5821 5821 5821 5820 5820 5819 5817 5816 5816 5815 5814 5812 5811 5809 5807 5805 5803 5801 5798 5796 5794 5792 5789 5787 5785 5782 5780 5777
5797 5799 5801 5803 5805 5806 5808 5810 5811 5813 5814 5815 5817 5820 5816 5817 5816 5816 5817 5816 5816 5815 5814 5813 5812 5811 5810 5808 5807 5805 5803 5801 5799 5797 5795 5793 5790 5788 5786 5783 5781 5778 5776 5773
5793 5795 5797 5799 5802 5802 5803 5804 5806 5807 5809 5810 5811 5815 5811 5811 5811 5811 5811 5811 5811 5811 5810 5810 5809 5808 5807 5805 5803 5801 5799 5797 5795 5793 5791 5789 5787 5785 5782 5780 5777 5774 5772 5769
5789 5791 5794 5796 5797 5797 5798 5799 5800 5802 5803 5804 5805 5807 5806 5806 5806 5806 5806 5806 5806 5807 5806 5806 5805 5804 5803 5801 5799 5797 5795 5793 5791 5789 5787 5786 5784 5782 5779 5776 5773 5771 5768 5765
5784 5785 5787 5789 5790 5791 5792 5794 5795 5796 5797 5798 5799 5800 5800 5800 5801 5801 5801 5801 5801 5802 5801 5801 5800 5799 5798 5797 5795 5793 5791 5789 5787 5786 5784 5782 5780 5778 5775 5773 5770 5767 5764 5761
5777 5779 5781 5783 5784 5785 5786 5788 5789 5790 5791 5792 5792 5794 5794 5794 5794 5795 5795 5796 5796 5796 5796 5796 5795 5794 5793 5792 5790 5789 5787 5785 5784 5782 5780 5778 5776 5774 5772 5770 5767 5764 5761 5758
5771 5773 5775 5777 5778 5779 5780 5782 5783 5784 5785 5786 5786 5787 5787 5787 5788 5789 5789 5790 5791 5791 5791 5790 5790 5789 5788 5787 5785 5784 5783 5781 5780 5778 5776 5774 5773 5771 5768 5766 5763 5760 5757 5754
5765 5767 5768 5770 5772 5772 5776 5776 5777 5778 5778 5779 5779 5779 5780 5781 5782 5783 5783 5784 5785 5785 5785 5784 5784 5783 5783 5781 5780 5779 5778 5777 5775 5774 5772 5770 5768 5767 5765 5762 5759 5756 5754 5751
5759 5760 5762 5763 5764 5765 5767 5769 5770 5771 5771 5772 5773 5773 5774 5774 5775 5776 5776 5777 5778 5778 5778 5778 5778 5777 5777 5776 5775 5774 5773 5772 5770 5769 5768 5766 5764 5762 5760 5758 5755 5752 5750 5747
5752 5753 5755 5756 5758 5759 5760 5762 5762 5764 5764 5765 5765 5766 5767 5768 5768 5769 5769 5770 5771 5771 5771 5771 5771 5771 5770 5770 5769 5769 5768 5767 5765 5764 5763 5761 5759 5758 5756 5753 5751 5748 5746 5743
5745 5746 5748 5749 5750 5750 5753 5754 5756 5758 5758 5758 5758 5759 5760 5760 5762 5762 5762 5763 5763 5763 5764 5764 5764 5764 5764 5763 5763 5763 5762 5761 5760 5758 5757 5756 5754 5753 5751 5749 5746 5744 5741 5739
5737 5739 5741 5742 5743 5745 5746 5747 5749 5750 5750 5750 5751 5752 5752 5753 5754 5754 5755 5755 5755 5756 5756 5756 5757 5757 5757 5757 5756 5756 5756 5755 5754 5753 5752 5750 5749 5747 5746 5744 5742 5739 5737 5734
5729 5731 5733 5735 5737 5737 5738 5739 5740 5741 5742 5743 5744 5744 5745 5746 5746 5747 5747 5748 5748 5748 5749 5749 5749 5749 5749 5749 5749 5749 5749 5748 5748 5747 5746 5744 5743 5742 5740 5738 5736 5734 5732 5730
5721 5723 5725 5726 5727 5729 5730 5732 5733 5734 5735 5736 5736 5737 5738 5738 5739 5739 5740 5740 5740 5741 5741 5741 5741 5742 5742 5742 5741 5741 5741 5741 5741 5740 5739 5738 5737 5736 5734 5733 5731 5729 5727 5725
5714 5715 5717 5718 5720 5721 5723 5724 5725 5727 5728 5728 5729 5729 5730 5731 5731 5732 5732 5732 5733 5733 5733 5733 5734 5734 5734 5734 5734 5733 5734 5734 5734 5733 5732 5731 5730 5729 5728 5726 5725 5723 5722 5720
5706 5708 5710 5711 5712 5714 5715 5716 5718 5719 5720 5721 5722 5722 5723 5723 5724 5724 5724 5725 5725 5725 5725 5725 5725 5726 5726 5726 5726 5726 5726 5726 5726 5726 5725 5724 5723 5722 5721 5720 5719 5717 5716 5715